Regional Weather Roundup
Issued by NWS

Home | Current Version | Previous Version | Graphics & Text | Print | Product List | Glossary On
Versions: 1 2 3 4 5 6 7 8 9 10 11 12 13 14 15 16 17 18 19 20 21 22 23 24 25 26 27 28 29 30 31 32 33 34 35 36 37 38 39 40 41 42 43 44 45 46 47 48 49 50
000
ASUS43 KLOT 310112
RWRIL

ILLINOIS REGIONAL WEATHER ROUNDUP
NATIONAL WEATHER SERVICE CHICAGO/ROMEOVILLE IL
800 PM CDT SUN AUG 30 2015

NOTE: "FAIR" INDICATES FEW OR NO CLOUDS BELOW 12,000 FEET WITH NO
SIGNIFICANT WEATHER AND/OR OBSTRUCTIONS TO VISIBILITY.

* THESE STATIONS ARE NOT UNDER NWS QUALITY CONTROL. THEY ALSO MAY NOT
  REPORT WEATHER SUCH AS PRECIPITATION OR FOG.

ILZ001-002-007-009-015-016-024-310200-
NORTHWEST ILLINOIS

CITY           SKY/WX    TMP DP  RH WIND       PRES   REMARKS
MOLINE         CLEAR     70  65  84 E5        30.00S
STERLING*        N/A    N/A N/A N/A MISG        N/A
SAVANNA*       CLEAR     69  65  86 CALM      30.01R
$$

ILZ003-004-008-010-011-017-018-310200-
NORTH CENTRAL ILLINOIS

CITY           SKY/WX    TMP DP  RH WIND       PRES   REMARKS
ROCKFORD       PTCLDY    68  64  87 SE5       30.03S
FREEPORT*      CLEAR     66  64  94 CALM      30.03S
ROCHELLE*      CLEAR     66  64  93 CALM      30.03R
DE KALB*       CLEAR     69  64  85 CALM      30.04R
PERU*          CLEAR     71  64  77 E3        30.03R
$$

ILZ005-006-012>014-019>023-310200-
NORTHEAST ILLINOIS

CITY           SKY/WX    TMP DP  RH WIND       PRES   REMARKS
CHICAGO-OHARE  CLEAR     69  64  84 E7        30.03R
CHICAGO-MIDWAY CLEAR     71  64  78 E8        30.03R
AURORA         CLEAR     68  65  90 CALM      30.03R
LANSING*       CLEAR     69  65  89 N3        30.03R
JOLIET*        CLEAR     68  65  92 CALM      30.02R
WAUKEGAN       CLEAR     64  63  96 SE5       30.02S FOG
DUPAGE AIRPORT CLEAR     68  63  84 CALM      30.02S
KANKAKEE*      CLEAR     71  67  88 CALM      30.03R
WHEELING       CLEAR     67  63  87 E3        30.04R
MORRIS*        CLEAR     69  65  86 NW5       30.02R
ROMEOVILLE*    CLEAR     71  63  74 NW3       30.03R
NORTHERLY ISL    N/A     68  64  87 E5          N/A
$$

LMZ740>746-310200-
SOUTHERN LAKE MICHIGAN

STATION/POSITION SKY/WX   TEMP    WIND        PRES    VSBY  WAVE
                          AIR SEA DIR/SP/G                  HT/PER
                          (F)     (DEG/KT/KT) (MB)    (MI)  (FT/S)
SOUTHERN BUOY              67 68  140/  4/  6 1016.6R         0
WILMETTE HARBOR            62 61   CALM  /  2   N/A           1
HARRISON CRIB              68      70/  5/  6   N/A
BURNHAM HARBOR             68      70/  4/  5   N/A
BURNS HARBOR               70      60/  8/  8 1016.9F
MICHIGAN CITY              69      20/  7/  7   N/A
MICHIGAN CITY 6N           69 71   70/  6/  8   N/A           1/ 3
ST. JOSEPH                 69 71   70/  4/  6   N/A           1/ 3
$$

ILZ025>027-034>036-040-047-049-050-058-095>099-310200-
WEST-CENTRAL ILLINOIS

CITY           SKY/WX    TMP DP  RH WIND       PRES   REMARKS
QUINCY         PTCLDY    79  69  71 E5        29.99S HX  81
GALESBURG*     CLEAR     70  67  90 CALM      30.01S
MACOMB*        CLEAR     70  68  94 E3        30.03R
JACKSONVILLE*  MOCLDY    80  72  77 CALM      30.00R HX  83
PITTSFIELD*    CLEAR     77  71  83 CALM      30.01R
$$

ILZ028>032-037-038-041>044-048-051>054-059>061-310200-
CENTRAL ILLINOIS

CITY           SKY/WX    TMP DP  RH WIND       PRES   REMARKS
PONTIAC        CLEAR     72  69  91 CALM      30.03R
BLOOMINGTON    CLEAR     76  70  82 NE7       30.04R
DECATUR        CLEAR     79  68  69 S6        30.01R HX  81
PEORIA         CLEAR     76  67  73 NE3       30.02R
LACON*         CLEAR     69  65  86 E3        30.01S
LINCOLN*       CLEAR     77  69  76 N3        30.00R
SPRINGFIELD    MOCLDY    77  72  84 CALM      30.00R
TAYLORVILLE    CLEAR     73  70  88 CALM      30.01R
$$

ILZ033-039-045-046-055>057-062-063-310200-
EAST-CENTRAL ILLINOIS

CITY           SKY/WX    TMP DP  RH WIND       PRES   REMARKS
CHAMPAIGN      MOCLDY    75  69  81 S3        30.02R
RANTOUL*       MOCLDY    79  73  81 E6        30.02R HX  83
MATTOON        CLEAR     77  68  73 SW3       30.02R
PARIS*         PTCLDY    72  69  89 CALM      30.04R
$$

ILZ079-100>102-310200-
SOUTHWEST ILLINOIS

CITY           SKY/WX    TMP DP  RH WIND       PRES   REMARKS
ALTON          CLEAR     75  70  83 CALM      30.00
BELLEVILLE     PTCLDY    79  74  84 E3        29.99R HX  82
CAHOKIA*       PTCLDY    81  70  69 S12G17    29.99R HX  84
SPARTA*        PTCLDY    78  73  83 SE3       30.02R HX  80
$$

ILZ064>066-069>071-074>076-080>082-084>086-088>090-092>094-310200-
SOUTH-CENTRAL ILLINOIS

CITY           SKY/WX    TMP DP  RH WIND       PRES   REMARKS
CARBONDALE     PTCLDY    78  71  79 SE7       30.01R HX  80
CAIRO*         PTCLDY    77  72  83 SE8       30.03R
EFFINGHAM*     CLEAR     74  67  78 CALM      30.03R
MARION         PTCLDY    79  72  78 SE3       30.03R HX  82
MT. VERNON     PTCLDY    75  66  73 CALM      30.03R
SALEM*         PTCLDY    81  69  67 CALM      30.01S HX  84
METROPOLIS*    PTCLDY    75  70  86 SE5       30.05R
$$

ILZ067-068-072-073-078-083-087-091-310200-
SOUTHEAST ILLINOIS

CITY           SKY/WX    TMP DP  RH WIND       PRES   REMARKS
LAWRENCEVILLE  CLEAR     75  69  81 SW5       30.03R
FLORA*         CLEAR     76  67  73 S5        30.02S
FAIRFIELD*     PTCLDY    77  70  80 S5        30.01S
HARRISBURG*    PTCLDY    76  72  86 S5        30.04R
ROBINSON*      CLEAR     73  68  85 S5        30.03R
CARMI*         PTCLDY    73  70  89 S6        30.03R
$$

ABBREVIATIONS USED IN REMARKS
   TC - TEMPERATURE IN CELSIUS
  WCI - WIND CHILL INDEX
   HX - HEAT INDEX
  VSB - VISIBILITY
$$




USA.gov is the U.S. government's official web portal to all federal, state and local government web resources and services.